STARLINK-32705, 62479

Orbit data source: Space-Track

STARLINK-32705, 62479 is a payload satellite owned by SpaceX/Seattle (US) in LEO that was launched on Tue, 31 Dec 2024 UTC via an FALCON 9 launch vehicle from the Air Force Eastern Test Range (AFETR). Payloads include a variety of satellites, spacecraft, and rockets equipped with specific instruments for various scientific and technological missions. These include communications satellites like Starlink; space stations such as the ISS; scientific satellites like the Hubble; Earth observation satellites from companies like Planet Labs, Umbra, and HawkEye 360; GPS; miniature CubeSats for education and research; and military/defense satellites.

Loading next visibility...
STARLINK-32705 details
Identifier
62479, 2024-254T
Orbit
LEO
Last TLE update6 hours ago
Origin
Flag of USSpaceX/Seattle (US)
ManufacturerSpaceX/Seattle
MissionOperational spacecraft
Bus & MotorSTARLINK V2M, Unknown motor
Mass730 kg wet, ~700 kg dry
Launch date (UTC)
2024-12-31 (4 weeks ago)
Launch vehicle
FALCON 9
Launch site
Air Force Eastern Test Range (AFETR)
Object type
Payload
Rocket body
Debris
Shape & HBRUnknown
Radar Cross SectionLarge (>1 m²)

Expand to show TLE details & history

TLE from 6 hours ago
0 STARLINK-32705
1 62479U 24254T   25025.58334491 -.01610999  00000-0 -28461-1 0  9995
2 62479  42.9991 166.1442 0001289 269.6864 341.7003 15.52538236  5079
Epoch: 2025-01-25T14:00Z
Definitive object data (Epoch: 2025-01-25T14:00:01Z)
Latitude-40.43091°
Longitude76.32205°
Altitude420.693 km
Speed7.66 km/s
True Right ascension03h 25m 49s
True Declination-40° 15' 10"
Sunlit
Object was in daylight at TLE epoch
Visualization TLE readout
Latitude-43.13288°
Longitude97.05134°
Altitude424.314 km
Speed7.658 km/s
Apparent Right ascension07h 11m 11s
Apparent Declination-47° 25' 16"
Sunlit
Object is in daylight
Visualization observer readout
Local Sidereal Time21:36:05
Azimuth118.215° SE
Elevation-63.014°
Doppler factor1
Orbital elements
Apogee altitude412.16 km
Perigee altitude410.409 km
Semi-major axis6,789.422 km
Eccentricity0.0001289
Inclination42.9991°
RAAN166.1442°
Arg. of periapsis269.6864°
True anomaly341.69566°
Mean anomaly341.7003°
Eccentric anomaly341.69798°
Mean motion3.87966 °/min
BSTAR-0.028461
Orbital period92.79 mins
Loading maneuver chart data...
Loading historical data...
Loading historical data...
Loading historical data...
Loading historical data...
Loading historical data...
Loading historical data...
Loading historical data...

STARLINK-32705 Visibility forecast

Observer location: undefined°, undefined

Span
Click to sort rows by Start time (UTC) header in descending order
Start Az.
Max El. time (UTC)
Max El. Az.
Max El.
End time (UTC)
End Az.
5 mins2025-01-26 12:19:01.206Z204.469° SW2025-01-26 12:21:01.206Z152.864° SSE27.154°2025-01-26 12:24:01.206Z86.712° E
4 mins2025-01-26 13:57:01.206Z270.465° WNW2025-01-26 13:58:01.206Z296.666° NW40.447°2025-01-26 14:01:01.206Z68.131° E
5 mins2025-01-26 15:34:01.206Z293.775° NW2025-01-26 15:36:01.206Z350.584° N36.624°2025-01-26 15:39:01.206Z78.108° E
5 mins2025-01-26 17:12:01.206Z283.316° WNW2025-01-26 17:14:01.206Z169.182° S43.783°2025-01-26 17:17:01.206Z115.845° SE
|